Regional Weather Roundup
Issued by NWS

Home | Current Version | Previous Version | Graphics & Text | Print | Product List | Glossary On
Versions: 1 2 3 4 5 6 7 8 9 10 11 12 13 14 15 16 17 18 19 20 21 22 23 24 25 26 27 28 29 30 31 32 33 34 35 36 37 38 39 40 41 42 43 44 45 46 47 48 49 50
000
ASUS45 KABQ 050801
RWRNM
WEATHER ROUNDUP FOR NEW MEXICO
NATIONAL WEATHER SERVICE ALBUQUERQUE NM
100 AM MST THU MAR 05 2015

NOTE: "FAIR" MEANS FEW OR NO CLOUDS BELOW 12,000 FEET AGL WITH NO
       SIGNIFICANT WEATHER OR OBSTRUCTIONS TO VISION.

      THIS PRODUCT IS RELEASED AS TWO VERSIONS.  ONE VERSION NEAR
      THE TOP OF THE HOUR CONTAINING PRELIMINARY DATA FROM ALBUQUERQUE
      AND OTHER STATIONS.  A FINAL VERSION WITH ADDITIONAL DATA IS
      ISSUED ABOUT 10 MINUTES AFTER THE HOUR.

NMZ501-503-504-510>518-050900-
NORTHWEST PLATEAU/NORTHCENTRAL MOUNTAINS

CITY           SKY/WX    TMP DP  RH WIND       PRES   REMARKS
FARMINGTON     CLEAR     26  14  60 W5        30.27R WCI  20
SANTA FE       CLEAR     20  14  77 S8        30.28R WCI  10
TAOS           PTCLDY    16   3  57 N5        30.24R WCI   9
ANGEL FIRE     FAIR     -16 -21  78 S3        30.22R

$$
NMZ402-403-502-505>509-050900-
WESTCENTRAL MOUNTAINS/SOUTHWEST MOUNTAINS

CITY           SKY/WX    TMP DP  RH WIND       PRES   REMARKS
GALLUP         CLEAR     23  15  71 E3        30.29R
SILVER CITY    CLEAR     37  14  38 N12       30.21R WCI  30

$$
NMZ407-409-411-412-050900-
SOUTHERN DESERTS

CITY           SKY/WX    TMP DP  RH WIND       PRES   REMARKS
DEMING         CLEAR     37  30  75 NE7       30.19R WCI  32
ALAMOGORDO     MOCLDY    34  28  80 SE12      30.28R WCI  25
T OR C         CLEAR     31  22  69 NE10      30.25R WCI  22

$$
NMZ519>523-050900-
CENTRAL VALLEYS/CENTRAL HIGHLANDS

CITY           SKY/WX    TMP DP  RH WIND       PRES   REMARKS
ALBUQUERQUE    CLEAR     27  19  72 N8        30.28R WCI  19
DOUBLE EAGLE   CLEAR     23  17  77 N8        30.28R WCI  14
MORIARTY ARPT  CLOUDY    20  15  79 S5        30.32R WCI  14
CLINES CORNERS CLOUDY    17  14  88 E5        30.24R FOG     WCI  10
BELEN          FAIR      28  14  55 N8        30.29R WCI  20
SOCORRO        NOT AVBL

$$
NMZ524>526-539-540-050900-
SOUTHCENTRAL MOUNTAINS

CITY           SKY/WX    TMP DP  RH WIND       PRES   REMARKS
RUIDOSO        NOT AVBL

$$
NMZ527>531-050900-
NORTHEAST HIGHLANDS/NORTHEAST PLAINS

CITY           SKY/WX    TMP DP  RH WIND       PRES   REMARKS
LAS VEGAS      CLOUDY    13  11  92 S7        30.26R WCI   3
RATON          CLOUDY     7   3  84 N6        30.27R WCI  -3
CLAYTON        CLEAR      6   3  87 W9        30.32S WCI  -8

$$
NMZ532>537-050900-
EASTCENTRAL PLAINS

CITY           SKY/WX    TMP DP  RH WIND       PRES   REMARKS
TUCUMCARI      CLEAR     16  13  88 NW6       30.40R WCI   7
CANNON AFB     NOT AVBL
CLOVIS AIRPORT CLOUDY    21  16  79 N6        30.39R WCI  14

$$
NMZ028-029-538-050900-
SOUTHEAST PLAINS

CITY           SKY/WX    TMP DP  RH WIND       PRES   REMARKS
ROSWELL        CLOUDY    26  20  77 NE8       30.44R WCI  18
ARTESIA        CLOUDY    27  21  80 NE10      30.46R WCI  17
CARLSBAD       CLOUDY    28  20  71 N12       30.45R WCI  18
HOBBS          CLOUDY    23  23 100 N14       30.42R WCI  11


$$


USA.gov is the U.S. government's official web portal to all federal, state and local government web resources and services.